Syracuse, NY

9:57 AM EST on November 14, 2019 (GMT -0500)
Syracuse Hancock International

Weather History for KSYR - October, 2019

Change the Weather History Date:

Tuesday, October 15, 2019

  Actual Average Record
Temperature  
Mean Temperature 49 °F 51 °F  
Max Temperature 61 °F 60 °F 83 °F (1947)
Min Temperature 37 °F 41 °F 29 °F (1996)
Degree Days  
Heating Degree Days 16 14  
Month to date heating degree days 180  
Since 1 July heating degree days 347  
Cooling Degree Days 0 0  
Month to date cooling degree days 0  
Year to date cooling degree days 565  
Moisture  
Dew Point 37 °F    
Average Humidity 68    
Maximum Humidity 93    
Minimum Humidity 36    
Precipitation  
Precipitation 0.00 in 0.11 in 1.20 in (2003)
Month to date precipitation 1.69  
Year to date precipitation 29.97  
Snow  
Snow - 0.00 in T in (1972)
Month to date snowfall 0.0  
Since 1 July snowfall 0.0  
Since 1 September snowfall 0.0  
Snow Depth -    
Sea Level Pressure  
Sea Level Pressure 30.08 in    
Wind  
Wind Speed 4 mph ()    
Max Wind Speed 8 mph    
Max Gust Speed -    
Visibility 10.0 miles    
Events      
T = Trace of Precipitation, MM = Missing Value Source: Averaged Metar Reports

Daily Weather History Graph

Daily Weather History Graph

Search for Another Location

Airport or City:

Astronomy

Oct. 15, 2019 Rise Set
Actual Time 7:17 AM EDT 6:22 PM EDT
Civil Twilight 6:49 AM EDT 6:50 PM EDT
Nautical Twilight 6:16 AM EDT 7:23 PM EDT
Astronomical Twilight 5:43 AM EDT 7:56 PM EDT
Moon 7:38 PM EDT (10/15) 8:47 AM EDT (10/15)
Length of Visible Light 12h 01m
Length of Day
11h 04m
Full, 97% of the Moon is Illuminated
Oct 15
Full
Oct 21
Last Quarter
Oct 27
New
Nov 4
First Quarter
Nov 12
Full

Hourly Weather History & Observations

Time (EDT) Temp. Windchill Dew Point Humidity Pressure Visibility Wind Dir Wind Speed Gust Speed Precip Events Conditions
12:54 AM 45.0 °F 42.6 °F 37.0 °F 74% 30.09 in 10.0 mi West 4.6 mph - N/A   Scattered Clouds
1:54 AM 42.1 °F 39.2 °F 37.0 °F 82% 30.10 in 10.0 mi WSW 4.6 mph - N/A   Scattered Clouds
2:54 AM 44.1 °F 41.5 °F 37.9 °F 79% 30.11 in 10.0 mi West 4.6 mph - N/A   Overcast
3:54 AM 41.0 °F - 37.9 °F 89% 30.12 in 10.0 mi Calm Calm - N/A   Mostly Cloudy
4:54 AM 39.9 °F 37.8 °F 37.0 °F 89% 30.13 in 10.0 mi SSE 3.5 mph - N/A   Scattered Clouds
5:54 AM 37.0 °F 34.5 °F 35.1 °F 93% 30.14 in 10.0 mi SE 3.5 mph - N/A   Scattered Clouds
6:54 AM 39.0 °F 36.8 °F 36.0 °F 89% 30.15 in 10.0 mi South 3.5 mph - N/A   Mostly Cloudy
7:54 AM 42.1 °F - 39.0 °F 89% 30.16 in 10.0 mi Calm Calm - N/A   Mostly Cloudy
8:54 AM 45.0 °F - 41.0 °F 86% 30.17 in 10.0 mi Calm Calm - N/A   Mostly Cloudy
9:54 AM 51.1 °F - 37.9 °F 61% 30.17 in 10.0 mi WSW 4.6 mph - N/A   Mostly Cloudy
10:54 AM 54.0 °F - 35.1 °F 49% 30.15 in 10.0 mi WSW 8.1 mph - N/A   Mostly Cloudy
11:54 AM 55.0 °F - 35.1 °F 47% 30.15 in 10.0 mi SSW 6.9 mph - N/A   Mostly Cloudy
12:54 PM 57.0 °F - 33.1 °F 40% 30.12 in 10.0 mi WSW 5.8 mph - N/A   Scattered Clouds
1:54 PM 59.0 °F - 33.1 °F 38% 30.09 in 10.0 mi Variable 3.5 mph - N/A   Partly Cloudy
2:54 PM 60.1 °F - 33.1 °F 36% 30.06 in 10.0 mi Calm Calm - N/A   Partly Cloudy
3:54 PM 61.0 °F - 34.0 °F 36% 30.04 in 10.0 mi Variable 3.5 mph - N/A   Partly Cloudy
4:54 PM 57.9 °F - 37.9 °F 47% 30.02 in 10.0 mi NE 8.1 mph - N/A   Partly Cloudy
5:54 PM 54.0 °F - 37.0 °F 53% 30.02 in 10.0 mi ENE 4.6 mph - N/A   Partly Cloudy
6:54 PM 50.0 °F - 39.9 °F 68% 30.02 in 10.0 mi East 3.5 mph - N/A   Scattered Clouds
7:54 PM 48.9 °F - 37.9 °F 66% 30.01 in 10.0 mi East 4.6 mph - N/A   Scattered Clouds
8:54 PM 46.0 °F 43.9 °F 39.0 °F 76% 30.01 in 10.0 mi East 4.6 mph - N/A   Scattered Clouds
9:54 PM 44.1 °F 40.1 °F 37.9 °F 79% 29.99 in 10.0 mi East 6.9 mph - N/A   Scattered Clouds
10:54 PM 43.0 °F 40.3 °F 37.0 °F 80% 29.98 in 10.0 mi East 4.6 mph - N/A   Scattered Clouds
11:54 PM 42.1 °F 38.4 °F 37.0 °F 82% 29.95 in 10.0 mi East 5.8 mph - N/A   Mostly Cloudy